{"data":{"norad_id":51749,"intl_designator":"2022-016AM","name":"STARLINK-3451","alt_names":[],"object_type":"PAYLOAD","status":"ACTIVE","operator":null,"country":"US","launch_date":"2022-02-21","launch_site_code":"AFETR","launch_vehicle":null,"mission":null,"orbit_class":"UNKNOWN","rcs_meters":null,"size_class":null,"mass_kg":null,"dimensions":null,"purposes":["comms"],"wikipedia_slug":null,"has_3d_model":false,"image_url":null,"decayed_at":null,"tle_current":{"epoch":"2026-09-19T04:17:48.484032Z","epoch_age_seconds":165829,"freshness":"FRESH","line1":"1 51749U 22016AM  26262.17903338 -.00000397  00000+0 -10309-5 0  9997","line2":"2 51749  53.1580 156.9528 0001165 106.8948 253.2182 15.31708372252958","mean_motion":15.31708372,"eccentricity":0.0001165,"inclination_deg":53.158,"raan_deg":156.9528,"arg_perigee_deg":106.8948,"mean_anomaly_deg":253.2182,"bstar":-1.0309e-6,"rev_number":25295,"period_min":94.012674104519,"perigee_km":469.91714758044,"apogee_km":471.51293010549,"semimajor_km":6848.852038843,"source":"CELESTRAK","updated_at":"2026-09-20T09:00:39.933216Z"}}}